カタログに戻る

FENGYUN 1C DEB

LostPO
NORAD 38786·DEBRIS·🇨🇳 China

打ち上げ May 10, 1999 から Taiyuan Satellite Launch Center

Loading…

次のパス (今後24時間)

TLE

古いSource: Space-Track

元期: Oct 30, 2024, 14:16 UTC

1 38786U 99025EUA 24304.59486532  .00041015  00000-0  22605-1 0  9999
2 38786  99.5002 258.4245 0203765 207.3576 151.6740 14.01354152682480

AllMySatでFENGYUN 1C DEBをリアルタイム追跡

Download on the App Store